sat.trackr.live / text

‹ back to catalog

COSMOS 2492 (754)

NORAD 39620 · 2014-012A

PAYLOAD ACTIVE UNKNOWN

§ Identity

Operator
Country
CIS
Launch date
2014-03-23
Launch site
PLMSC
Launch vehicle
Mass (kg)
RCS (m²)
6.40

Purposes: nav

External: N2YO · Heavens-Above · Gunter

§ Orbital elements

Epoch: 2026-09-18T17:17:50.754048Z

Period
675.73 min
Inclination
65.2379°
Eccentricity
0.0011995
Mean motion
2.13103532 rev/d
Perigee alt
19,099.2 km
Apogee alt
19,160.4 km
Semi-major
25,507.9 km
B*
0.0000e+0
RAAN
310.7526°
Arg perigee
306.9531°
Mean anomaly
53.0076°
Rev number
9,723

§ Raw data

COSMOS 2492 (754)1 39620U 14012A   26261.72072632 -.00000035  00000+0  00000+0 0  99912 39620  65.2379 310.7526 0011995 306.9531  53.0076  2.13103532 97232

JSON: /api/v1/satellites/39620 · /tle

For live sub-satellite position, see the globe view (requires WebGL).

§ Visibility from observer

Set your observer location to see the next 7 days of passes ≥ 10°. The values pass through the URL so the page stays shareable.

No JS? Fill the form by hand. The geolocation button needs JavaScript.